Hartford, CT

4:07 AM EDT on July 21, 2017 (GMT -0400)
Hartford-brainard

Weather History for KHFD - October, 2012

Change the Weather History Date:

Tuesday, October 23, 2012

  Actual Average Record
Temperature  
Mean Temperature 52 °F -  
Max Temperature 61 °F 61 °F 86 °F (2002)
Min Temperature 45 °F 39 °F 25 °F (1980)
Degree Days  
Heating Degree Days 12    
Growing Degree Days 2 (Base 50)    
Moisture  
Dew Point 47 °F    
Average Humidity 80    
Maximum Humidity 93    
Minimum Humidity 51    
Precipitation  
Precipitation 0.11 in - - ()
Sea Level Pressure  
Sea Level Pressure 30.09 in    
Wind  
Wind Speed 0 mph (SE)    
Max Wind Speed 5 mph    
Max Gust Speed -    
Visibility 10 miles    
Events Rain    
Averages and records for this station are not official NWS values.
T = Trace of Precipitation, MM = Missing Value Source: NWS Daily Summary

Daily Weather History Graph

Daily Weather History Graph

Search for Another Location

Airport or City:

Trip Planner

Search our weather history database for the weather conditions in past years. The results will help you decide how hot, cold, wet, or windy it might be!

Date:

Astronomy

Oct. 23, 2012 Rise Set
Actual Time 7:12 AM EDT 5:56 PM EDT
Civil Twilight 6:44 AM EDT 6:24 PM EDT
Nautical Twilight 6:11 AM EDT 6:57 PM EDT
Astronomical Twilight 5:39 AM EDT 7:29 PM EDT
Moon 2:43 PM EDT (10/23) 12:56 AM EDT (10/23)
Length of Visible Light 11h 40m
Length of Day
10h 43m
Waxing Gibbous, 66% of the Moon is Illuminated
Oct 23
Waxing Gibbous
Oct 29
Full
Nov 6
Last Quarter
Nov 13
New
Nov 20
First Quarter

Hourly Weather History & Observations

Time (EDT) Temp. Dew Point Humidity Pressure Visibility Wind Dir Wind Speed Gust Speed Precip Events Conditions
12:53 AM 53.1 °F 41.0 °F 64% 30.05 in 10.0 mi Calm Calm - N/A   Clear
2:53 AM 48.0 °F 42.1 °F 80% 30.05 in 10.0 mi Calm Calm - N/A   Clear
3:53 AM 46.9 °F 43.0 °F 86% 30.06 in 10.0 mi Calm Calm - N/A   Clear
4:53 AM 46.0 °F 42.1 °F 86% 30.06 in 10.0 mi Calm Calm - N/A   Clear
5:53 AM 46.0 °F 42.1 °F 86% 30.08 in 10.0 mi Calm Calm - N/A   Clear
6:53 AM 45.0 °F 42.1 °F 90% 30.09 in 10.0 mi Calm Calm - N/A   Clear
7:53 AM 46.0 °F 42.1 °F 86% 30.11 in 10.0 mi Calm Calm - N/A   Clear
8:53 AM 50.0 °F 45.0 °F 83% 30.13 in 10.0 mi Calm Calm - N/A   Clear
9:53 AM 57.0 °F 43.0 °F 59% 30.13 in 10.0 mi Calm Calm - N/A   Clear
11:53 AM 60.1 °F 42.1 °F 51% 30.11 in 10.0 mi NE 3.5 mph - N/A   Mostly Cloudy
1:53 PM 60.1 °F 46.0 °F 60% 30.08 in 10.0 mi Calm Calm - 0.00 in   Overcast
2:53 PM 60.1 °F 45.0 °F 57% 30.07 in 10.0 mi SSW 4.6 mph - N/A   Overcast
4:53 PM 55.9 °F 52.0 °F 87% 30.06 in 10.0 mi Calm Calm - 0.00 in   Overcast
5:53 PM 57.0 °F 51.1 °F 81% 30.07 in 10.0 mi Calm Calm - N/A   Overcast
6:53 PM 55.9 °F 50.0 °F 80% 30.08 in 10.0 mi Calm Calm - 0.00 in Rain Light Rain
7:53 PM 55.0 °F 52.0 °F 89% 30.08 in 9.0 mi Calm Calm - 0.03 in Rain Light Rain
8:53 PM 55.0 °F 51.1 °F 86% 30.09 in 10.0 mi Calm Calm - 0.07 in Rain Light Rain
9:53 PM 55.0 °F 52.0 °F 89% 30.11 in 10.0 mi Calm Calm - 0.01 in   Overcast
10:11 PM 55.4 °F 51.8 °F 88% 30.11 in 9.0 mi Calm Calm - N/A   Overcast
10:53 PM 54.0 °F 52.0 °F 93% 30.12 in 7.0 mi Calm Calm - N/A   Overcast
11:53 PM 55.0 °F 53.1 °F 93% 30.12 in 4.0 mi Calm Calm - N/A   Overcast